• In India
  • List of Countries
  • For 7 days
  • Water Temperature
  • Satellite Maps
  • Weather Map
  • Weather Widgets
  • user-avatar
    Login

    Hourly Weather Algiers

    Today, 26 September, Wednesday

    Time Temperature Precipitation Wind Pressure Humidity
    00:00 +23°C° 0 mm 2 mps 754 mmHg 80%
    01:00 +23°C° 0 mm 2 mps 754 mmHg 82%
    02:00 +23°C° 0 mm 2 mps 754 mmHg 84%
    03:00 +22°C° 0 mm 1 mps 753 mmHg 85%
    04:00 +21°C° 0 mm 2 mps 754 mmHg 86%
    05:00 +21°C° 0 mm 2 mps 754 mmHg 87%
    06:00 +21°C° 0 mm 2 mps 754 mmHg 87%
    07:00 +23°C° 0 mm 2 mps 754 mmHg 79%
    08:00 +25°C° 0 mm 3 mps 754 mmHg 70%
    09:00 +26°C° 0 mm 3 mps 754 mmHg 62%
    10:00 +27°C° 0 mm 4 mps 754 mmHg 57%
    11:00 +28°C° 0 mm 4 mps 755 mmHg 51%
    12:00 +30°C° 0 mm 5 mps 755 mmHg 46%
    13:00 +30°C° 0 mm 6 mps 754 mmHg 47%
    14:00 +30°C° 0 mm 6 mps 754 mmHg 47%
    15:00 +30°C° 0 mm 7 mps 754 mmHg 48%
    16:00 +29°C° 0 mm 7 mps 754 mmHg 54%
    17:00 +28°C° 0 mm 7 mps 754 mmHg 60%
    18:00 +27°C° 0 mm 7 mps 755 mmHg 66%
    19:00 +26°C° 0 mm 7 mps 755 mmHg 70%
    20:00 +26°C° 0 mm 7 mps 755 mmHg 73%
    21:00 +24°C° 0 mm 7 mps 756 mmHg 77%
    22:00 +24°C° 0 mm 7 mps 756 mmHg 78%
    23:00 +24°C° 0 mm 7 mps 755 mmHg 80%

    Tomorrow, 27 September, Thursday

    Time Temperature Precipitation Wind Pressure Humidity
    00:00 +23°C° 0 mm 6 mps 755 mmHg 81%
    01:00 +23°C° 0 mm 6 mps 755 mmHg 82%
    02:00 +23°C° 0 mm 6 mps 755 mmHg 83%
    03:00 +22°C° 0 mm 6 mps 755 mmHg 85%
    04:00 +22°C° 0 mm 6 mps 755 mmHg 85%
    05:00 +22°C° 0 mm 6 mps 755 mmHg 86%
    06:00 +22°C° 0 mm 5 mps 755 mmHg 86%
    07:00 +23°C° 0 mm 5 mps 756 mmHg 78%
    08:00 +26°C° 0 mm 5 mps 756 mmHg 70%
    09:00 +27°C° 0 mm 5 mps 756 mmHg 63%
    10:00 +28°C° 0 mm 6 mps 756 mmHg 58%
    11:00 +30°C° 0 mm 6 mps 755 mmHg 53%
    12:00 +32°C° 0 mm 6 mps 755 mmHg 48%
    13:00 +32°C° 0 mm 6 mps 755 mmHg 48%
    14:00 +30°C° 0 mm 7 mps 754 mmHg 48%
    15:00 +30°C° 0 mm 7 mps 754 mmHg 47%
    16:00 +29°C° 0 mm 7 mps 754 mmHg 51%
    17:00 +28°C° 0 mm 6 mps 754 mmHg 55%
    18:00 +27°C° 0 mm 6 mps 754 mmHg 59%
    19:00 +26°C° 0 mm 6 mps 754 mmHg 62%
    20:00 +25°C° 0 mm 5 mps 754 mmHg 64%
    21:00 +25°C° 0 mm 5 mps 754 mmHg 67%
    22:00 +23°C° 0 mm 4 mps 754 mmHg 69%
    23:00 +23°C° 0 mm 4 mps 753 mmHg 70%

    Day after tomorrow, 28 September, Friday

    Time Temperature Precipitation Wind Pressure Humidity
    00:00 +23°C° 0 mm 4 mps 753 mmHg 72%
    01:00 +22°C° 0 mm 4 mps 753 mmHg 73%
    02:00 +22°C° 0 mm 4 mps 752 mmHg 75%
    03:00 +22°C° 0 mm 4 mps 752 mmHg 76%
    04:00 +22°C° 0 mm 4 mps 752 mmHg 77%
    05:00 +21°C° 0 mm 4 mps 752 mmHg 78%
    06:00 +21°C° 0 mm 3 mps 752 mmHg 79%
    07:00 +24°C° 0 mm 3 mps 752 mmHg 71%
    08:00 +26°C° 0 mm 3 mps 752 mmHg 63%
    09:00 +27°C° 0 mm 3 mps 752 mmHg 55%
    10:00 +28°C° 0 mm 4 mps 752 mmHg 50%
    11:00 +29°C° 0 mm 4 mps 752 mmHg 45%
    12:00 +30°C° 0 mm 4 mps 751 mmHg 40%
    13:00 +30°C° 0 mm 5 mps 751 mmHg 41%
    14:00 +30°C° 0 mm 5 mps 750 mmHg 41%
    15:00 +30°C° 0 mm 5 mps 750 mmHg 41%
    16:00 +28°C° 0 mm 5 mps 750 mmHg 47%
    17:00 +27°C° 0 mm 5 mps 750 mmHg 52%
    18:00 +25°C° 0 mm 4 mps 750 mmHg 58%
    19:00 +25°C° 0 mm 4 mps 750 mmHg 61%
    20:00 +24°C° 0 mm 3 mps 750 mmHg 64%
    21:00 +22°C° 0 mm 3 mps 750 mmHg 67%
    22:00 +22°C° 0 mm 3 mps 750 mmHg 67%
    23:00 +23°C° 0 mm 2 mps 750 mmHg 68%

    29 September, Saturday

    Time Temperature Precipitation Wind Pressure Humidity
    00:00 +23°C° 0 mm 2 mps 750 mmHg 68%
    01:00 +21°C° 0 mm 2 mps 749 mmHg 68%
    02:00 +21°C° 0 mm 2 mps 749 mmHg 67%
    03:00 +21°C° 0 mm 2 mps 749 mmHg 67%
    04:00 +21°C° 0 mm 2 mps 749 mmHg 66%
    05:00 +21°C° 0 mm 2 mps 749 mmHg 66%
    06:00 +21°C° 0 mm 2 mps 749 mmHg 65%
    07:00 +24°C° 0 mm 2 mps 749 mmHg 57%
    08:00 +26°C° 0 mm 2 mps 749 mmHg 49%
    09:00 +28°C° 0 mm 2 mps 750 mmHg 41%
    10:00 +29°C° 0 mm 3 mps 749 mmHg 38%
    11:00 +30°C° 0 mm 3 mps 749 mmHg 35%
    12:00 +32°C° 0 mm 4 mps 749 mmHg 32%
    13:00 +32°C° 0 mm 4 mps 749 mmHg 33%
    14:00 +32°C° 0 mm 4 mps 749 mmHg 34%
    15:00 +32°C° 0 mm 5 mps 748 mmHg 35%
    16:00 +29°C° 0 mm 4 mps 748 mmHg 40%
    17:00 +28°C° 0 mm 4 mps 749 mmHg 46%
    18:00 +26°C° 0 mm 4 mps 749 mmHg 51%
    19:00 +26°C° 0 mm 3 mps 749 mmHg 53%
    20:00 +25°C° 0 mm 3 mps 749 mmHg 55%
    21:00 +25°C° 0 mm 3 mps 750 mmHg 57%
    22:00 +25°C° 0 mm 3 mps 750 mmHg 55%
    23:00 +25°C° 0 mm 3 mps 749 mmHg 54%

    30 September, Sunday

    Time Temperature Precipitation Wind Pressure Humidity
    00:00 +25°C° 0 mm 3 mps 749 mmHg 53%
    01:00 +24°C° 0 mm 3 mps 749 mmHg 53%
    02:00 +24°C° 0 mm 3 mps 749 mmHg 52%
    03:00 +24°C° 0 mm 3 mps 749 mmHg 52%
    04:00 +24°C° 0 mm 3 mps 749 mmHg 52%
    05:00 +24°C° 0 mm 3 mps 749 mmHg 52%
    06:00 +22°C° 0 mm 3 mps 749 mmHg 52%
    07:00 +26°C° 0 mm 3 mps 749 mmHg 45%
    08:00 +28°C° 0 mm 3 mps 749 mmHg 39%
    09:00 +30°C° 0 mm 3 mps 749 mmHg 33%
    10:00 +31°C° 0 mm 3 mps 749 mmHg 32%
    11:00 +33°C° 0 mm 4 mps 749 mmHg 30%
    12:00 +34°C° 0 mm 4 mps 749 mmHg 28%
    13:00 +33°C° 0 mm 4 mps 749 mmHg 30%
    14:00 +33°C° 0 mm 5 mps 748 mmHg 32%
    15:00 +33°C° 0 mm 5 mps 748 mmHg 34%
    16:00 +30°C° 0 mm 4 mps 748 mmHg 40%
    17:00 +29°C° 0 mm 4 mps 748 mmHg 45%
    18:00 +27°C° 0 mm 4 mps 748 mmHg 51%
    19:00 +27°C° 0 mm 3 mps 749 mmHg 53%
    20:00 +26°C° 0 mm 3 mps 749 mmHg 54%
    21:00 +26°C° 0 mm 3 mps 749 mmHg 56%
    22:00 +25°C° 0 mm 2 mps 749 mmHg 57%
    23:00 +25°C° 0 mm 2 mps 748 mmHg 58%

    1 October, Monday

    Time Temperature Precipitation Wind Pressure Humidity
    00:00 +25°C° 0 mm 2 mps 748 mmHg 58%
    01:00 +25°C° 0 mm 2 mps 748 mmHg 59%
    02:00 +24°C° 0 mm 2 mps 748 mmHg 59%
    03:00 +24°C° 0 mm 2 mps 747 mmHg 59%
    04:00 +24°C° 0 mm 2 mps 747 mmHg 61%
    05:00 +23°C° 0 mm 2 mps 747 mmHg 62%
    06:00 +23°C° 0 mm 2 mps 748 mmHg 63%
    07:00 +25°C° 0 mm 2 mps 748 mmHg 56%
    08:00 +27°C° 0 mm 2 mps 748 mmHg 49%
    09:00 +29°C° 0 mm 2 mps 748 mmHg 43%
    10:00 +30°C° 0 mm 2 mps 748 mmHg 38%
    11:00 +31°C° 0 mm 3 mps 748 mmHg 34%
    12:00 +33°C° 0 mm 3 mps 747 mmHg 30%
    13:00 +31°C° 0 mm 3 mps 747 mmHg 31%
    14:00 +31°C° 0 mm 3 mps 747 mmHg 32%
    15:00 +32°C° 0 mm 4 mps 746 mmHg 33%
    16:00 +30°C° 0 mm 3 mps 746 mmHg 39%
    17:00 +28°C° 0 mm 3 mps 746 mmHg 44%
    18:00 +27°C° 0 mm 3 mps 746 mmHg 50%
    19:00 +26°C° 0 mm 2 mps 746 mmHg 51%
    20:00 +26°C° 0 mm 2 mps 746 mmHg 52%
    21:00 +26°C° 0 mm 1 mps 747 mmHg 54%
    22:00 +25°C° 0 mm 1 mps 746 mmHg 54%
    23:00 +25°C° 0 mm 1 mps 746 mmHg 54%
    Show more